Regional Weather Roundup
Issued by NWS

Home | Current Version | Previous Version | Text Only | Print | Product List | Glossary Off
Versions: 1 2 3 4 5 6 7 8 9 10 11 12 13 14 15 16 17 18 19 20 21 22 23 24 25 26 27 28 29 30 31 32 33 34 35 36 37 38 39 40 41 42 43 44 45 46 47 48 49 50

000
ASUS43 KMKX 051100
RWRWI

WISCONSIN REGIONAL WEATHER ROUNDUP
NATIONAL WEATHER SERVICE MILWAUKEE/SULLIVAN WI
600 AM CDT SUN JUL 05 2015

NOTE: "FAIR" INDICATES FEW OR NO CLOUDS BELOW 12,000 FEET WITH NO
SIGNIFICANT WEATHER AND/OR OBSTRUCTIONS TO VISIBILITY.

WIZ001-002-006>008-014>016-023>028-051200-
NORTHWEST WISCONSIN

CITY           SKY/WX    TMP DP  RH WIND       PRES   REMARKS
SUPERIOR ARPT  FOG       52  52 100 CALM      29.93F VSB 3/4
ASHLAND        CLEAR     61  61 100 S3        29.95F FOG
HAYWARD        CLEAR     65  60  84 SW5       29.97F
SIREN          CLEAR     63  60  90 S5        29.95R
CUMBERLAND     CLEAR     61  59  94 S6        29.98S FOG
RICE LAKE      CLEAR     63  59  88 SE3       30.00S
CHETEK         CLEAR     64  62  94 E6        29.99S
LADYSMITH      CLEAR     63  61  93 CALM      30.03R FOG
EAU CLAIRE     CLEAR     62  58  86 SE3       29.98S
MENOMONIE      CLEAR     63  60  91 E5        29.98S
NEW RICHMOND   CLEAR     61  59  93 SE5       29.97R
OSCEOLA        CLEAR     63  63 100 SE6       29.98R
$$

WIZ003>005-009-010-017-018-051200-
NORTH CENTRAL WISCONSIN

CITY           SKY/WX    TMP DP  RH WIND       PRES   REMARKS
MANITOWISH WTR CLOUDY    60  60 100 CALM      30.02S FOG
ARBOR VITAE      N/A     62  61  95 CALM      30.03S FOG
WOODRUFF         N/A     62  61  95 CALM      30.03S FOG
RHINELANDER    PTCLDY    62  60  93 S3        30.05R FOG
EAGLE RIVER    CLEAR     63  63 100 SW3       30.03S FOG
LAND O LAKES   FOG       60  60 100 CALM      30.04R VSB<1/4
PHILLIPS       CLEAR     60  60 100 CALM      30.02R FOG
TOMAHAWK       FOG       57  56  97 CALM      30.04S VSB<1/4
MEDFORD        FOG       58  58  99 S3        30.03R VSB 1/4
MERRILL        FOG       54  54 100 CALM      30.05R VSB<1/4
$$

WIZ029-030-035-036-043>047-051200-
CENTRAL WISCONSIN

CITY           SKY/WX    TMP DP  RH WIND       PRES   REMARKS
WAUSAU         MOCLDY    63  62  97 N3        30.04R FOG
MOSINEE        MOCLDY    63  63 100 S6        30.05R
MARSHFIELD     CLEAR     61  57  87 S5        30.05R FOG
STEVENS POINT  MOCLDY    61  59  92 S3        30.05R
WAUPACA        FOG       60  60  97 CALM      30.04R VSB 1
WAUTOMA        NOT AVBL
WISC RAPIDS    CLEAR     63  59  87 CALM      30.06R
CAMP DOUGLAS   NOT AVBL
$$

WIZ011>013-019>022-031-037>040-048>050-051200-
NORTHEAST WISCONSIN

CITY           SKY/WX    TMP DP  RH WIND       PRES   REMARKS
ANTIGO         CLEAR     61  60  99 W3        30.05R FOG
SHAWANO        CLEAR     65  62  91 CALM      30.04R FOG
OCONTO         MOCLDY    60  60 100 CALM      30.03R
STURGEON BAY   CLEAR     61  55  82 SW3       30.07R
GREEN BAY      CLEAR     63  61  93 CALM      30.04R FOG
MANITOWOC      NOT AVBL
APPLETON       MOCLDY    64  61  88 SW7       30.05R
CLINTONVILLE   CLEAR     61  59  94 SW3       30.03R FOG
OSHKOSH        CLEAR     65  60  84 S5        30.04R HAZE
$$

WIZ032>034-041-042-053>061-051200-
SOUTHWEST WISCONSIN

CITY           SKY/WX    TMP DP  RH WIND       PRES   REMARKS
LA CROSSE      CLEAR     66  62  87 S8        30.01R
SPARTA         CLEAR     54  52  93 CALM      30.04R
VIROQUA        CLEAR     62  59  91 S6        30.04R
BOSCOBEL       FOG       60  59  96 CALM      30.04R VSB<1/4
PRAIRIE DU CHI CLEAR     61  58  90 E3        30.03R
PLATTEVILLE    CLEAR     61  60  96 SE7       30.05S
$$

WIZ056-057-062-063-064-067-068-051200-
SOUTH CENTRAL WISCONSIN

CITY           SKY/WX    TMP DP  RH WIND       PRES   REMARKS
REEDSBURG      CLEAR     58  58  97 CALM      30.04S
BARABOO/DELLS  CLEAR     58  56  92 S5        30.04S
LONE ROCK      PTCLDY    56  54  93 E3        30.05R FOG
MINERAL POINT  CLEAR     61  59  94 SE6       30.06R
MADISON        PTCLDY    61  58  90 CALM      30.06R
MIDDLETON      CLEAR     60  58  96 CALM      30.06R
WATERTOWN      CLEAR     58  58 100 CALM      30.06R FOG
MONROE         CLEAR     61  59  94 S6        30.06R
JANESVILLE     CLEAR     59  57  94 CALM      30.07R FOG
$$

WIZ051-052-058>065-066-070>072-051200-
SOUTHEAST WISCONSIN

CITY           SKY/WX    TMP DP  RH WIND       PRES   REMARKS
MILWAUKEE      PTCLDY    63  56  78 CALM      30.06R HAZE
WAUKESHA       CLEAR     61  59  94 CALM      30.08R
MILWAUKEE/TIMM CLEAR     59  55  88 CALM      30.06R FOG
RACINE         CLEAR     59  55  87 W3        30.08R FOG
BURLINGTON       N/A     54  53  99 CALM      30.07R FOG
KENOSHA        CLEAR     56  54  93 W3        30.07R FOG
FOND DU LAC    CLEAR     63  60  90 SW5       30.06R FOG
SHEBOYGAN      CLEAR     60  58  92 CALM      30.05R FOG
WEST BEND        N/A     59  57  94 CALM      30.06R FOG
JUNEAU         CLEAR     61  59  95 CALM      30.07R FOG
$$

LSZ147-162-051200-
LAKE SUPERIOR

STATION/POSITION TIME  TEMP    WIND        PRES    WAVE
                       AIR SEA DIR/SP/G            HT/PER
                 (UTC) (F)     (DEG/KT/KT) (MB)    (FT/S)
W MID LAKE BUOY  0950   45 39  180/  6/  6 1013.8R   0
DEVILS ISLAND    1000   58     190/  6/  7 1014.0R
SAXON HARBOR     1040   65      CALM  /  4 1014.2R
$$

LMZ867-665-643>646-051200-
LAKE MICHIGAN

STATION/POSITION TIME  TEMP    WIND        PRES    WAVE
                       AIR SEA DIR/SP/G            HT/PER
                 (UTC) (F)     (DEG/KT/KT) (MB)    (FT/S)
CHAMBERS ISLAND  1000   63     150/  4/  7 1016.3R
S GREEN BAY BUOY 1000   68 69  180/ 10/ 14 1017.5R
N MID LAKE BUOY  0950   52 45  180/ 10/ 10 1016.7F   0
NORTHPORT PIER   1000   62     160/  7/ 11 1016.3S
SISTER BAY       1014   59     160/  9/ 12   N/A
ALGOMA LAKESHORE 1011          210/  7/  8   N/A
KEWAUNEE LAKESHO 1000   61     180/  2/  5 1016.0S
SHEBOYGAN LAKESH 1000   62     210/  3/  3 1017.3R
PORT WASHINGTON  1040   62        CALM     1018.3R
ATWATER BUOY     1000   63 59  180/  6/  6 1018.7R
MILWAUKEE LAKESH 1000   66     180/  4/  4   N/A
KENOSHA   LAKESH 1000   64     200/  2/  3 1017.6S
$$

TC  - TEMPERATURE IN CELSIUS
VSB - VISIBILITY IN STATUTE MILES
WCI - WIND CHILL INDEX
HX  - HEAT INDEX




USA.gov is the U.S. government's official web portal to all federal, state and local government web resources and services.